Weather History for KCIU - January, 2012

Change the Weather History Date:

Sunday, January 29, 2012

  Actual Average (KANJ) Record (KANJ)
Temperature  
Mean Temperature 20 °F 15 °F  
Max Temperature 24 °F 23 °F 48 °F (1914)
Min Temperature 17 °F 7 °F -26 °F (1899)
Degree Days  
Heating Degree Days 44 50  
Month to date heating degree days 1438  
Since 1 July heating degree days 4697  
Moisture  
Dew Point 17 °F    
Average Humidity 85    
Maximum Humidity 93    
Minimum Humidity 74    
Precipitation  
Precipitation 0.00 in 0.06 in 0.95 in (1996)
Month to date precipitation 2.06  
Year to date precipitation 2.06  
Snow  
Snow 0.00 in 0.90 in 11.70 in (1996)
Month to date snowfall 29.5  
Since 1 July snowfall 79.7  
Snow Depth -    
Sea Level Pressure  
Sea Level Pressure 29.84 in    
Wind  
Wind Speed 11 mph (West)    
Max Wind Speed 20 mph    
Max Gust Speed 26 mph    
Visibility 8 miles    
Events      
T = Trace of Precipitation, MM = Missing Value Source: NWS Daily Summary

Daily Weather History Graph

Daily Weather History Graph

Search for Another Location

Airport or City:

Trip Planner

Search our weather history database for the weather conditions in past years. The results will help you decide how hot, cold, wet, or windy it might be!

Date:

Astronomy

Jan. 29, 2012 Rise Set
Actual Time 8:04 AM EST 5:37 PM EST
Civil Twilight 7:32 AM EST 6:09 PM EST
Nautical Twilight 6:56 AM EST 6:46 PM EST
Astronomical Twilight 6:21 AM EST 7:21 PM EST
Moon 10:29 AM EST (1/29) No Moon Set
Length of Visible Light 10h 37m
Length of Day
9h 32m
Waxing Crescent, 36% of the Moon is Illuminated
Jan 29
Waxing Crescent
Jan 30
First Quarter
Feb 7
Full
Feb 14
Last Quarter
Feb 21
New

Hourly Weather History & Observations

Time (EST) Temp. Windchill Dew Point Humidity Pressure Visibility Wind Dir Wind Speed Gust Speed Precip Events Conditions
12:15 AM 21.2 °F 8.9 °F 15.8 °F 80% 29.75 in 10.0 mi WSW 12.7 mph 20.7 mph N/A   Scattered Clouds
12:35 AM 21.2 °F 8.9 °F 15.8 °F 80% 29.75 in 10.0 mi WSW 12.7 mph 18.4 mph N/A   Scattered Clouds
12:55 AM 21.2 °F 8.9 °F 15.8 °F 80% 29.75 in 10.0 mi West 12.7 mph 19.6 mph N/A   Mostly Cloudy
1:15 AM 21.2 °F 7.3 °F 15.8 °F 80% 29.74 in 10.0 mi West 16.1 mph 21.9 mph N/A   Overcast
1:35 AM 21.2 °F 9.5 °F 15.8 °F 80% 29.75 in 10.0 mi WSW 11.5 mph - N/A   Mostly Cloudy
1:55 AM 19.4 °F 7.2 °F 15.8 °F 86% 29.75 in 10.0 mi WSW 11.5 mph 16.1 mph N/A   Scattered Clouds
2:15 AM 19.4 °F 7.2 °F 15.8 °F 86% 29.75 in 10.0 mi WSW 11.5 mph 16.1 mph N/A   Mostly Cloudy
2:35 AM 19.4 °F 7.9 °F 15.8 °F 86% 29.76 in 10.0 mi WSW 10.4 mph 18.4 mph N/A   Overcast
2:55 AM 19.4 °F 8.6 °F 15.8 °F 86% 29.77 in 10.0 mi WSW 9.2 mph - N/A   Mostly Cloudy
3:15 AM 19.4 °F 9.5 °F 15.8 °F 86% 29.77 in 10.0 mi WSW 8.1 mph - N/A   Partly Cloudy
3:35 AM 19.4 °F 8.6 °F 15.8 °F 86% 29.77 in 10.0 mi WSW 9.2 mph - N/A   Mostly Cloudy
3:55 AM 19.4 °F 10.4 °F 15.8 °F 86% 29.77 in 10.0 mi SW 6.9 mph - N/A   Mostly Cloudy
4:15 AM 19.4 °F 10.4 °F 15.8 °F 86% 29.78 in 10.0 mi WSW 6.9 mph - N/A   Mostly Cloudy
4:35 AM 17.6 °F 8.2 °F 15.8 °F 93% 29.78 in 10.0 mi WSW 6.9 mph - N/A   Overcast
4:55 AM 17.6 °F 7.3 °F 15.8 °F 93% 29.78 in 10.0 mi WSW 8.1 mph - N/A   Overcast
5:15 AM 17.6 °F 6.4 °F 15.8 °F 93% 29.78 in 10.0 mi WSW 9.2 mph - N/A   Overcast
5:35 AM 17.6 °F 5.7 °F 15.8 °F 93% 29.78 in 10.0 mi West 10.4 mph - N/A   Overcast
5:55 AM 19.4 °F 8.6 °F 15.8 °F 86% 29.78 in 10.0 mi WSW 9.2 mph - N/A   Overcast
6:15 AM 17.6 °F 8.2 °F 15.8 °F 93% 29.78 in 10.0 mi WSW 6.9 mph - N/A   Overcast
6:35 AM 17.6 °F 6.4 °F 15.8 °F 93% 29.79 in 10.0 mi WSW 9.2 mph - N/A   Overcast
6:55 AM 19.4 °F 8.6 °F 17.6 °F 93% 29.79 in 10.0 mi West 9.2 mph - N/A   Overcast
7:15 AM 19.4 °F 8.6 °F 17.6 °F 93% 29.79 in 10.0 mi West 9.2 mph - N/A   Overcast
7:35 AM 19.4 °F 9.5 °F 17.6 °F 93% 29.80 in 10.0 mi West 8.1 mph - N/A   Overcast
7:55 AM 19.4 °F 10.4 °F 17.6 °F 93% 29.81 in 10.0 mi West 6.9 mph - N/A   Overcast
8:15 AM 19.4 °F 9.5 °F 17.6 °F 93% 29.81 in 10.0 mi West 8.1 mph - N/A   Mostly Cloudy
8:35 AM 19.4 °F 7.9 °F 17.6 °F 93% 29.82 in 10.0 mi West 10.4 mph - N/A   Overcast
8:55 AM 19.4 °F 10.4 °F 17.6 °F 93% 29.82 in 5.0 mi West 6.9 mph - N/A   Mostly Cloudy
9:15 AM 19.4 °F 7.9 °F 17.6 °F 93% 29.83 in 10.0 mi West 10.4 mph - N/A   Overcast
9:35 AM 21.2 °F 11.7 °F 17.6 °F 86% 29.83 in 5.0 mi West 8.1 mph - N/A   Overcast
9:55 AM 21.2 °F 10.1 °F 17.6 °F 86% 29.83 in 7.0 mi West 10.4 mph - N/A   Overcast
10:15 AM 21.2 °F 8.9 °F 17.6 °F 86% 29.83 in 10.0 mi West 12.7 mph 17.3 mph N/A   Overcast
10:35 AM 21.2 °F 8.3 °F 17.6 °F 86% 29.84 in 10.0 mi West 13.8 mph - N/A   Overcast
10:55 AM 21.2 °F 10.9 °F 17.6 °F 86% 29.85 in 5.0 mi West 9.2 mph - N/A   Overcast
11:15 AM 23.0 °F 11.7 °F 17.6 °F 80% 29.85 in 6.0 mi West 11.5 mph 16.1 mph N/A   Overcast
11:35 AM 23.0 °F 11.1 °F 17.6 °F 80% 29.85 in 5.0 mi West 12.7 mph - N/A   Overcast
11:55 AM 23.0 °F 10.6 °F 17.6 °F 80% 29.85 in 7.0 mi West 13.8 mph - N/A   Overcast
12:15 PM 24.8 °F 14.0 °F 17.6 °F 74% 29.85 in 5.0 mi West 11.5 mph - N/A   Overcast
12:35 PM 23.0 °F 10.1 °F 19.4 °F 86% 29.85 in 1.5 mi WNW 15.0 mph - N/A   Overcast
12:55 PM 21.2 °F 6.0 °F 19.4 °F 93% 29.85 in 0.5 mi West 19.6 mph 23.0 mph N/A   Overcast
1:15 PM 21.2 °F 10.1 °F 19.4 °F 93% 29.86 in 10.0 mi West 10.4 mph - N/A   Overcast
1:35 PM 24.8 °F 12.9 °F 17.6 °F 74% 29.86 in 8.0 mi West 13.8 mph - N/A   Overcast
1:55 PM 24.8 °F 11.1 °F 19.4 °F 80% 29.85 in 0.8 mi NW 18.4 mph 24.2 mph N/A   Overcast
2:15 PM 23.0 °F 8.3 °F 17.6 °F 80% 29.86 in 1.5 mi WNW 19.6 mph 26.5 mph N/A   Overcast
2:35 PM 21.2 °F 7.8 °F 17.6 °F 86% 29.87 in 5.0 mi West 15.0 mph - N/A   Overcast
2:55 PM 21.2 °F 7.3 °F 17.6 °F 86% 29.88 in 10.0 mi West 16.1 mph 21.9 mph N/A   Overcast
3:15 PM 21.2 °F 8.9 °F 17.6 °F 86% 29.88 in 1.2 mi WNW 12.7 mph 25.3 mph N/A   Overcast
3:35 PM 21.2 °F 7.8 °F 17.6 °F 86% 29.89 in 7.0 mi WNW 15.0 mph 18.4 mph N/A   Mostly Cloudy
3:55 PM 21.2 °F 8.3 °F 17.6 °F 86% 29.90 in 1.0 mi NW 13.8 mph - N/A   Overcast
4:15 PM 21.2 °F 7.3 °F 15.8 °F 80% 29.91 in 2.0 mi WNW 16.1 mph 20.7 mph N/A   Overcast
4:35 PM 21.2 °F 8.3 °F 15.8 °F 80% 29.92 in 8.0 mi WNW 13.8 mph 19.6 mph N/A   Mostly Cloudy
4:55 PM 19.4 °F 7.9 °F 15.8 °F 86% 29.93 in 10.0 mi West 10.4 mph - N/A   Mostly Cloudy
5:15 PM 19.4 °F 9.5 °F 12.2 °F 74% 29.94 in 10.0 mi West 8.1 mph - N/A   Mostly Cloudy
5:35 PM 19.4 °F 5.5 °F 12.2 °F 74% 29.95 in 10.0 mi West 15.0 mph - N/A   Mostly Cloudy
5:55 PM 19.4 °F 7.2 °F 12.2 °F 74% 29.96 in 10.0 mi West 11.5 mph - N/A   Overcast
6:15 PM 19.4 °F 5.0 °F 12.2 °F 74% 29.96 in 10.0 mi West 16.1 mph 23.0 mph N/A   Overcast
6:35 PM 19.4 °F 7.2 °F 15.8 °F 86% 29.98 in 10.0 mi West 11.5 mph - N/A   Overcast
6:55 PM 19.4 °F 7.2 °F 15.8 °F 86% 29.98 in 10.0 mi West 11.5 mph 16.1 mph N/A   Overcast
7:15 PM 19.4 °F 7.2 °F 15.8 °F 86% 29.99 in 10.0 mi West 11.5 mph - N/A   Overcast
7:35 PM 17.6 °F 3.7 °F 15.8 °F 93% 30.00 in 10.0 mi West 13.8 mph - N/A   Overcast
7:55 PM 17.6 °F 5.7 °F 15.8 °F 93% 30.00 in 10.0 mi West 10.4 mph - N/A   Overcast
8:15 PM 17.6 °F 5.7 °F 14.0 °F 86% 30.01 in 10.0 mi West 10.4 mph - N/A   Overcast
8:35 PM 17.6 °F 4.3 °F 14.0 °F 86% 30.01 in 10.0 mi West 12.7 mph - N/A   Overcast
8:55 PM 17.6 °F 7.3 °F 14.0 °F 86% 30.02 in 10.0 mi West 8.1 mph - N/A   Overcast
9:15 PM 17.6 °F 5.7 °F 14.0 °F 86% 30.03 in 10.0 mi WSW 10.4 mph - N/A   Overcast
9:35 PM 17.6 °F 5.7 °F 14.0 °F 86% 30.03 in 10.0 mi WSW 10.4 mph - N/A   Overcast
9:55 PM 17.6 °F 7.3 °F 14.0 °F 86% 30.04 in 10.0 mi WSW 8.1 mph - N/A   Overcast
10:15 PM 15.8 °F 5.1 °F 14.0 °F 93% 30.04 in 10.0 mi WSW 8.1 mph - N/A   Overcast
10:35 PM 15.8 °F 5.1 °F 14.0 °F 93% 30.04 in 10.0 mi WSW 8.1 mph - N/A   Overcast
10:55 PM 15.8 °F 5.1 °F 14.0 °F 93% 30.04 in 10.0 mi WSW 8.1 mph - N/A   Overcast
11:15 PM 17.6 °F 4.3 °F 14.0 °F 86% 30.04 in 10.0 mi WSW 12.7 mph 18.4 mph N/A   Overcast
11:35 PM 17.6 °F 4.3 °F 14.0 °F 86% 30.04 in 10.0 mi WSW 12.7 mph 17.3 mph N/A   Overcast
11:55 PM 15.8 °F 2.1 °F 12.2 °F 86% 30.05 in 10.0 mi WSW 12.7 mph 16.1 mph N/A   Mostly Cloudy